Regional Weather Roundup
Issued by NWS

Home | Current Version | Previous Version | Text Only | Print | Product List | Glossary On
Versions: 1 2 3 4 5 6 7 8 9 10 11 12 13 14 15 16 17 18 19 20 21 22 23 24 25 26 27 28 29 30 31 32 33 34 35 36 37 38 39 40 41 42 43 44 45 46 47 48 49 50
000
ASUS43 KTOP 200259
RWRKS

WEATHER ROUNDUP FOR KANSAS
NATIONAL WEATHER SERVICE GOODLAND KS
1000 PM CDT TUE AUG 19 2014

NOTE:  "FAIR" INDICATES FEW OR NO CLOUDS BELOW 12,000 FEET WITH NO
SIGNIFICANT WEATHER AND/OR OBSTRUCTIONS TO VISIBILITY.

KSZ001>006-013>018-027>032-041>047-200400-
NORTHWEST KANSAS

CITY           SKY/WX    TMP DP  RH WIND       PRES   REMARKS
GOODLAND       CLOUDY    79  52  38 S7        29.85R
HAYS           PTCLDY    81  61  50 S12       29.79R
HILL CITY      CLEAR     82  62  50 S9        29.77R
RUSSELL        CLEAR     77  62  59 S7        29.78R
$$

KSZ061>065-074>080-084>089-200400-
SOUTHWEST KANSAS

CITY           SKY/WX    TMP DP  RH WIND       PRES   REMARKS
DODGE CITY     CLEAR     79  60  52 S10       29.84R
ELKHART          N/A     77  57  50 SE14        N/A
GARDEN CITY    MOCLDY    77  60  55 S8        29.83R
GREAT BEND     CLEAR     79  63  57 S9        29.80R
LIBERAL        CLEAR     81  57  44 S10       29.87R
PRATT          PTCLDY    79  59  50 S10       29.83R
$$

KSZ066>073-081>083-090>101-200400-
SOUTHEAST KANSAS

CITY           SKY/WX    TMP DP  RH WIND       PRES   REMARKS
CHANUTE        CLEAR     80  69  69 S8        29.84R HAZE
COFFEYVILLE    CLEAR     83  72  69 S9        29.83R
HUTCHINSON     CLEAR     81  66  60 SE9       29.81R
MEDICINE LODGE   N/A     83  63  50 S8        29.81R
NEWTON         CLEAR     81  64  57 S10       29.86R
PARSONS        CLEAR     83  71  67 S6        29.85R
WICHITA INTL   PTCLDY    82  67  60 S12       29.82R
WICHITA JABRA  CLEAR     81  67  62 S7        29.83R
WINFIELD       PTCLDY    81  70  69 S13       29.84R
$$

KSZ007>012-019>026-033>040-048>060-102>105-200400-
NORTHEAST KANSAS

CITY           SKY/WX    TMP DP  RH WIND       PRES   REMARKS
CONCORDIA      CLEAR     75  70  84 SE6       29.78R
EMPORIA        CLEAR     77  67  71 S9        29.82R
LAWRENCE       CLEAR     79  72  79 E7        29.80R
MANHATTAN      CLEAR     82  69  64 CALM      29.78R
OLATHE IND     CLEAR     75  69  81 S7        29.83R
OLATHE EXE     CLEAR     79  71  76 S5        29.82R
SALINA         CLEAR     82  68  62 SE9       29.78R
TOPEKA BILLARD CLEAR     82  72  71 E3        29.79R
TOPEKA FORBES  CLEAR     81  67  62 S5        29.80R
$$


USA.gov is the U.S. government's official web portal to all federal, state and local government web resources and services.